星链-3096 (STARLINK-3096 )

导读 | 星芒AI

STARLINK-3096 是 SpaceX Starlink 卫星互联网项目中的第 3096 颗卫星,属于“星链”计划的中轨道卫星群之一。该卫星由 SpaceX 研制并发射,旨在为全球用户提供高速、低延迟的宽带互联网服务。它运行在约 550 公里的轨道高度,采用先进的推进系统和激光通信技术,以提高网络效率和稳定性。STARLINK-3096 的部署有助于扩大 Starlink 在偏远和网络基础设施薄弱地区的覆盖范围,进一步推动全球互联网普及。

基本信息
目录编号:
49131
目录名称:
STARLINK-3096
国际标识:
2021-082B
轨道中心:
EARTH
卫星名称:
星链-3096
卫星全名:
星链-3096 (STARLINK-3096 )
卫星状态:
在轨 (已飞行1557 天)
发射日期:
2021-09-14 UTC
国别 :
美国 (US)
星等 :
--
轨道信息
数据来源 国际轨道数据
星历时间: 2025-12-19T13:55:29+0800
14小时前
查看轨道信息
半长轴: 6950.195km
偏心率: 0.000316
轨道倾角: 70.000°
近地点辐角 269.922°
升交点赤经 97.271°
平近点角 90.158°
近地点: 569.861km
远地点: 574.255km
周期: 96.107分钟
每日圈数: 14.983296
详细信息
固有亮度:
5
最大亮度:
2.5
卫星平台:
Starlink v1.5
覆盖范围:
全球
运营商:
太空探索技术公司
运营商所在国:
美国
制造商(研发单位):
太空探索技术公司
制造商所在国:
美国
使用方式:
暂无
卫星简介
星链(Starlink)计划是由太空探索技术公司(SpaceX)提出的一个巨型低轨卫星互联网星座项目,计划在2019年至2024年间在太空搭建由约1.2万颗卫星组成的“星链”网络,其中1584颗将部署在地球上空550千米处的近地轨道,并从2020年开始工作。该卫星仍在工作。
2D轨道图
3D轨道图
轨道高度分析图
轨道倾角分析图
轨道综合分析图
查看轨道综合分析图